Temperature
7 6 5 6 6 7 7 7 6 7 9 8 8 9 9 10 10 10 10 11 11 12 13 13 13 13 13 14 14 14 14 14 14 13 13 13 13 13 13 13 13 13 13 12
6 5 7 7 7 7 7 6 6 7 9 9 8 9 9 9 10 10 10 10 11 12 12 12 13 13 13 13 13 13 13 13 13 13 13 13 13 13 13 13 12 12 12 12
6 7 8 8 7 7 7 6 7 7 8 8 7 8 8 9 10 10 10 11 11 11 11 12 12 12 13 13 13 13 13 13 13 13 13 13 12 12 12 12 12 12 12 12
6 7 8 7 7 7 6 7 8 8 7 6 7 7 7 8 9 9 9 10 11 11 11 12 12 12 12 13 13 12 13 13 13 13 13 12 12 12 13 12 12 12 12 12
6 7 7 7 7 8 7 8 8 7 6 5 6 6 7 8 8 9 9 10 10 11 11 11 12 12 12 12 12 12 13 12 12 13 13 13 12 12 12 12 12 12 12 12
6 7 7 7 8 8 7 7 6 5 5 5 6 6 6 7 8 9 9 10 10 11 11 11 11 12 12 12 12 12 12 12 12 12 12 12 12 12 12 12 12 12 12 11
5 6 7 8 7 7 7 5 5 4 4 5 6 6 7 7 8 8 9 9 10 10 10 11 11 11 11 11 11 11 11 11 12 12 12 12 12 12 12 12 12 12 12 11
4 5 6 7 7 6 6 5 5 4 4 5 6 6 7 8 8 9 9 9 9 10 10 10 10 10 10 10 11 11 11 11 11 11 11 12 11 12 12 12 12 12 12 12
4 5 6 7 7 7 6 5 5 4 4 4 5 6 6 8 7 7 8 8 9 9 9 9 10 10 10 10 10 10 10 11 11 11 11 11 11 11 11 11 12 12 12 12
4 4 5 6 7 7 6 5 4 4 4 4 5 5 6 6 7 7 7 7 8 8 9 9 9 9 9 10 10 10 10 10 10 11 11 10 11 11 11 11 11 11 11 11
4 3 4 4 5 5 5 5 4 3 3 4 4 6 7 6 6 6 6 7 8 8 8 8 9 9 9 9 9 9 10 10 10 10 10 10 10 10 11 11 11 11 11 11
4 3 2 3 4 5 5 5 4 3 3 3 3 5 7 6 6 6 6 7 8 8 8 8 8 8 8 8 9 9 9 9 9 9 10 10 10 10 10 10 11 11 11 11
4 2 2 3 3 4 4 4 4 3 3 3 3 5 7 5 6 6 6 7 7 7 7 7 8 8 8 8 8 8 8 8 9 9 9 9 9 9 10 10 10 10 10 11
5 2 2 3 3 2 2 3 3 3 3 3 3 4 5 6 6 6 6 6 6 6 7 7 7 7 7 7 7 8 8 8 8 8 8 8 9 9 9 10 10 10 10 10
3 2 1 2 3 3 3 3 3 2 2 3 4 4 5 5 5 5 5 6 6 6 6 6 6 6 7 7 7 7 7 7 7 7 7 8 8 8 9 9 9 9 10 10
2 2 1 1 2 3 3 3 3 3 3 3 3 4 5 5 5 4 5 5 5 5 5 5 5 6 6 6 6 6 7 7 7 7 7 7 7 8 8 8 9 9 9 9
1 1 1 1 2 1 2 3 3 3 3 3 3 4 4 4 4 4 4 5 4 5 5 5 5 5 5 5 6 6 6 6 6 7 6 6 6 7 7 8 8 8 8 9
1 1 1 1 0 0 3 3 4 4 4 4 4 4 4 4 4 5 5 5 4 4 4 4 4 4 5 5 5 5 6 6 6 6 6 6 6 6 6 7 7 8 8 8
1 1 1 0 -0 0 2 3 3 3 3 4 3 4 4 4 4 4 5 5 5 4 4 4 4 4 4 4 4 5 5 5 5 5 5 6 6 6 6 6 7 7 7 8
1 1 1 -0 -0 1 2 3 4 4 2 3 3 3 3 3 2 2 5 4 4 4 4 4 4 4 4 4 4 4 4 5 5 5 5 5 5 5 5 6 6 6 7 7
-0 -0 0 -0 0 1 2 3 4 2 2 3 4 3 3 2 3 4 4 4 4 4 4 4 3 3 3 4 4 4 4 4 4 4 5 5 5 5 5 5 6 6 6 6
-0 -1 -1 -1 -0 1 3 2 2 2 4 4 4 4 4 4 4 4 3 3 3 3 3 3 3 3 3 3 3 3 3 3 4 4 4 4 4 4 5 5 5 5 5 6
0 1 0 0 2 2 3 3 4 5 4 4 4 4 4 3 3 3 3 3 3 3 3 3 3 3 3 3 3 3 3 3 3 3 3 4 4 4 4 4 4 5 5 5
-0 0 -0 -0 1 1 3 4 4 4 4 4 4 4 3 3 3 3 3 3 3 2 2 2 2 2 2 2 2 2 2 2 2 3 3 3 3 3 3 4 4 4 4 5
0 -0 -0 -0 1 1 2 3 4 4 4 4 3 3 3 3 3 2 2 2 2 2 2 2 1 1 2 2 2 2 2 2 2 2 2 2 2 3 3 3 3 3 4 4
-0 0 0 1 1 1 1 3 3 3 3 3 3 3 3 2 2 2 2 2 1 1 1 1 1 1 1 1 1 1 1 1 1 1 1 2 2 2 2 2 3 3 3 4
Wind_Speed
1 2 5 8 9 8 7 9 13 14 11 9 14 18 19 16 11 11 11 10 10 11 11 9 9 9 8 8 9 10 10 10 10 9 10 10 10 10 10 11 14 17 17 18
1 6 10 8 7 7 8 11 13 12 8 9 13 18 16 14 11 10 10 10 10 10 7 7 7 7 8 9 9 9 11 10 10 9 10 8 8 8 10 10 12 16 17 18
6 6 5 5 7 7 9 10 10 11 11 6 8 11 9 8 8 8 8 8 8 9 8 7 7 7 7 9 10 10 11 11 10 9 6 5 5 5 7 10 11 13 16 17
6 6 5 6 8 7 9 8 10 10 8 6 3 8 8 7 8 8 8 8 8 8 7 6 6 6 7 10 9 9 10 10 10 10 9 10 10 10 10 10 10 11 14 16
6 4 4 6 7 6 7 6 7 8 6 7 5 6 9 5 8 9 7 8 8 7 6 6 6 7 6 7 7 8 8 8 9 10 11 11 10 9 7 8 11 12 12 14
7 4 4 5 5 5 3 4 5 2 0 5 5 6 7 4 7 7 6 6 5 5 4 4 4 3 3 3 4 5 6 7 7 9 11 12 11 10 10 11 12 11 10 11
5 5 4 3 2 2 1 2 4 5 2 6 3 5 8 8 7 6 6 5 4 3 2 3 3 3 3 3 3 4 5 7 7 8 10 11 12 11 14 13 13 12 10 10
4 6 4 2 4 3 2 4 3 3 5 5 4 6 6 8 6 5 4 3 3 3 3 3 3 3 3 4 4 4 6 7 7 9 9 9 10 10 10 13 12 14 12 13
4 6 4 4 3 4 2 3 4 3 4 5 6 6 7 6 7 6 5 4 4 4 4 4 4 4 4 5 5 5 6 6 7 8 8 8 9 10 10 10 12 12 11 11
5 6 6 5 2 3 4 4 2 2 3 5 6 5 5 6 6 6 5 5 5 5 5 5 4 4 4 4 5 5 5 6 6 6 6 7 8 9 9 8 10 12 13 12
3 4 5 3 4 6 3 2 3 3 3 4 5 6 4 4 3 3 5 5 5 6 6 6 4 4 4 4 3 4 5 5 4 4 5 6 7 9 9 9 10 11 12 13
3 3 6 8 7 4 6 6 6 4 6 5 5 9 5 4 3 3 5 7 6 6 6 6 5 6 5 5 4 3 3 3 4 4 5 6 6 6 8 9 9 10 12 12
3 3 4 6 4 2 3 4 5 4 4 6 8 10 3 4 6 6 6 7 7 6 6 6 6 6 6 6 6 4 3 3 3 3 4 4 5 5 7 8 8 9 11 12
3 5 8 10 7 3 6 7 6 5 6 8 12 15 15 13 11 10 8 8 6 6 6 6 6 6 6 6 6 6 5 4 3 3 4 5 6 6 7 7 8 9 10 12
3 6 9 12 12 9 12 14 11 12 12 12 14 17 19 14 10 9 8 8 7 7 7 6 7 7 6 6 7 7 6 4 4 4 5 6 6 6 6 6 7 8 9 11
5 5 5 10 11 12 17 19 18 17 15 17 19 22 16 11 8 8 8 7 8 8 7 6 7 7 7 7 7 7 7 5 4 5 6 6 6 5 5 6 6 7 9 10
5 5 5 8 6 6 12 15 15 11 11 11 17 17 10 8 8 8 7 7 7 7 7 6 6 7 7 7 7 7 7 6 5 5 6 6 6 6 7 6 6 6 8 9
8 6 4 4 2 11 10 5 8 11 14 14 13 11 9 9 8 7 6 6 7 6 6 6 6 6 6 6 7 8 7 6 5 5 5 6 6 6 6 6 6 6 6 8
11 9 5 4 6 10 10 7 5 7 10 9 11 10 9 6 4 5 5 5 6 6 6 6 6 6 6 7 7 8 7 6 5 5 6 6 6 6 6 6 6 6 6 7
8 8 7 6 6 8 9 5 3 1 8 6 5 7 6 2 3 6 5 5 5 6 6 5 6 6 6 7 7 7 7 6 6 7 7 7 6 6 7 7 7 6 6 7
5 6 10 10 9 9 9 5 1 3 8 4 3 5 5 5 7 6 5 5 5 6 6 5 5 5 6 6 6 6 6 6 7 7 7 6 6 6 7 6 6 6 6 6
10 8 8 7 9 11 6 4 6 8 4 3 4 5 6 7 7 6 6 6 6 6 6 5 5 6 6 5 5 6 7 7 7 7 7 6 6 6 5 5 6 5 6 6
11 11 8 11 11 7 6 8 7 5 5 5 5 6 6 7 7 7 6 7 6 6 6 5 5 6 7 5 4 6 7 7 7 7 7 7 7 6 5 5 5 5 5 5
7 6 7 8 11 9 8 8 8 7 8 8 7 7 6 7 7 8 7 7 7 6 6 5 5 6 7 7 6 6 7 7 6 7 7 7 6 6 5 4 4 4 4 4
9 7 7 11 10 8 9 10 10 9 8 7 6 6 7 7 8 8 7 7 7 6 5 5 5 6 7 7 7 6 6 6 6 7 7 7 6 6 5 5 5 5 5 5
8 9 10 12 10 8 8 8 8 9 9 9 9 8 7 7 8 8 7 7 7 7 6 5 6 7 7 7 7 6 6 5 5 6 6 6 5 5 5 5 6 7 6 7
Wind_Direction
187 153 226 225 214 226 252 270 277 278 280 277 268 274 279 280 276 268 269 266 263 267 257 243 236 230 224 213 210 210 201 201 194 193 193 200 204 197 196 199 196 190 189 186
360 244 241 236 235 245 260 275 279 286 283 282 277 277 275 270 265 260 258 264 262 271 278 257 240 233 223 213 208 209 200 202 201 201 201 201 201 200 198 197 197 193 190 188
227 249 251 241 247 255 259 255 268 282 305 290 288 285 267 274 264 266 258 255 263 264 267 262 247 235 228 221 216 217 205 202 206 199 196 199 194 194 195 197 198 198 193 191
255 258 257 259 258 240 265 247 263 282 302 293 298 291 278 278 283 275 269 265 264 265 265 262 253 242 232 228 221 220 208 204 206 194 192 197 203 206 206 196 196 197 198 194
262 258 259 257 254 232 248 265 272 276 274 285 257 254 286 303 288 281 272 267 267 265 263 266 252 239 233 228 222 214 208 209 208 200 198 202 212 213 203 193 192 195 199 198
255 259 249 246 263 234 263 325 315 322 303 275 240 224 282 270 263 280 291 289 281 273 270 274 263 249 249 247 232 206 205 219 215 205 200 204 210 211 200 199 199 200 201 204
304 285 262 245 293 314 59 37 349 345 331 254 259 241 257 271 274 261 272 283 294 299 304 309 296 275 269 271 243 217 209 223 223 211 205 210 212 216 211 205 203 204 203 208
291 288 259 234 209 224 218 158 182 243 255 283 288 248 258 279 299 299 295 296 314 327 334 329 300 277 260 259 242 226 224 226 224 217 213 216 217 221 223 213 207 207 209 210
226 266 288 265 231 175 194 211 204 203 274 279 269 279 298 309 331 337 343 348 337 321 325 323 314 308 286 259 245 230 226 231 230 221 218 218 223 222 222 220 213 211 210 209
197 263 280 293 299 236 194 180 124 177 253 267 277 272 272 294 315 335 344 342 325 321 324 324 318 314 306 283 249 237 229 228 233 225 218 225 226 227 220 214 220 216 210 208
177 229 290 307 222 225 201 191 190 204 220 234 273 269 244 249 275 297 315 328 329 320 316 316 319 324 316 316 303 253 240 235 234 235 238 232 232 227 220 219 221 223 215 209
195 195 261 256 252 243 214 209 189 211 248 232 251 270 269 257 270 293 313 323 328 324 322 324 330 334 335 329 324 307 282 258 248 239 240 242 241 234 224 225 227 225 217 210
173 181 290 315 316 320 244 229 217 222 237 240 249 266 278 321 327 322 319 318 321 323 324 328 332 331 328 326 322 311 307 291 283 269 253 253 251 243 236 231 229 230 219 210
195 203 218 239 246 240 264 262 245 224 237 251 246 263 282 296 305 306 306 306 306 306 311 318 320 320 320 320 320 320 314 302 296 288 271 262 262 258 253 244 234 234 226 213
180 238 242 255 263 257 257 262 250 236 234 243 259 263 272 281 282 284 288 297 307 313 313 311 314 315 317 320 320 319 310 309 309 301 288 275 271 271 267 258 243 235 229 221
188 236 254 269 262 258 265 261 254 249 245 248 260 267 268 272 275 280 288 295 300 302 304 307 313 317 318 317 317 316 312 305 306 298 289 288 291 287 278 268 257 239 231 223
201 209 246 267 274 291 264 249 243 236 228 231 249 259 273 276 270 269 274 280 283 291 297 302 304 307 308 311 312 310 303 301 295 291 292 293 289 288 281 280 272 255 243 227
201 202 226 262 268 249 250 237 235 243 250 243 246 255 261 260 260 259 255 257 273 284 291 295 297 299 301 305 311 309 306 303 296 295 297 298 291 285 284 277 270 266 263 238
202 199 213 222 244 269 281 262 222 229 259 246 242 256 265 271 290 284 264 249 255 268 276 280 283 288 295 305 312 314 314 312 307 300 297 295 288 284 284 281 278 272 267 256
192 194 209 215 234 252 256 255 251 250 272 257 222 246 267 289 290 280 273 266 272 278 282 282 289 297 299 302 312 314 310 310 306 301 296 294 290 286 283 279 279 277 264 259
169 200 217 225 239 259 257 255 152 217 251 252 214 235 248 230 238 261 275 275 271 274 281 285 289 292 289 297 313 312 307 304 301 302 301 300 297 292 287 283 276 277 271 260
185 193 205 204 226 248 233 172 200 228 243 243 248 251 248 248 259 265 271 277 283 287 288 290 292 293 295 296 304 307 304 301 304 306 304 301 299 299 300 290 282 278 270 258
203 200 197 202 222 238 203 211 231 223 234 244 247 260 257 258 263 267 268 270 274 277 278 279 282 293 301 300 294 295 298 306 311 310 306 300 300 300 297 290 284 281 267 256
235 207 205 234 249 248 244 249 254 242 240 247 247 253 253 253 261 269 274 276 277 278 277 280 285 289 298 300 295 283 294 305 308 308 307 304 300 300 301 296 286 281 271 259
219 200 215 241 254 266 256 246 248 249 252 254 251 247 243 248 260 262 267 271 273 274 276 277 277 280 285 294 294 294 298 305 301 301 303 304 300 292 296 294 285 279 270 259
209 207 218 242 235 233 247 239 237 246 253 255 258 262 256 246 254 259 262 265 266 270 272 274 276 280 286 292 291 296 300 301 301 303 305 302 300 297 295 298 303 291 279 282
Height
1475 1478 1478 1474 1473 1472 1471 1471 1468 1460 1453 1452 1446 1438 1432 1428 1428 1425 1422 1420 1419 1417 1416 1417 1417 1418 1419 1420 1422 1423 1425 1428 1431 1434 1437 1439 1442 1445 1449 1452 1456 1459 1463 1466
1477 1476 1469 1468 1469 1469 1468 1468 1464 1455 1449 1447 1442 1434 1428 1423 1422 1420 1418 1416 1414 1413 1411 1411 1412 1412 1413 1414 1415 1417 1419 1422 1425 1427 1430 1433 1436 1439 1443 1447 1450 1453 1457 1460
1475 1469 1465 1466 1466 1467 1465 1465 1460 1455 1448 1444 1443 1432 1425 1418 1416 1414 1412 1411 1410 1409 1407 1407 1407 1407 1407 1408 1409 1411 1413 1416 1419 1422 1425 1429 1432 1434 1437 1440 1443 1447 1451 1454
1471 1466 1464 1464 1464 1463 1463 1456 1453 1451 1453 1452 1447 1441 1424 1418 1413 1410 1408 1407 1406 1405 1404 1403 1402 1402 1402 1403 1405 1406 1408 1411 1414 1417 1419 1421 1423 1425 1427 1432 1436 1441 1445 1448
1468 1463 1462 1462 1459 1458 1457 1452 1451 1449 1451 1453 1447 1447 1427 1418 1413 1407 1404 1403 1402 1401 1401 1400 1399 1399 1399 1399 1400 1401 1403 1405 1408 1411 1413 1415 1417 1420 1423 1427 1431 1434 1439 1442
1465 1461 1459 1457 1454 1454 1453 1453 1451 1452 1454 1456 1443 1444 1430 1420 1411 1406 1403 1401 1399 1399 1398 1397 1397 1396 1396 1396 1396 1397 1399 1401 1403 1405 1408 1410 1412 1414 1417 1420 1424 1428 1431 1435
1466 1460 1456 1454 1455 1454 1455 1460 1465 1465 1465 1454 1438 1437 1427 1413 1407 1404 1402 1399 1397 1396 1395 1394 1394 1394 1393 1393 1393 1393 1394 1396 1398 1400 1402 1405 1407 1409 1411 1413 1417 1420 1424 1428
1471 1465 1456 1453 1454 1455 1455 1459 1468 1470 1464 1450 1438 1432 1420 1410 1406 1402 1399 1397 1396 1395 1395 1394 1393 1392 1391 1390 1390 1390 1391 1392 1393 1395 1396 1398 1401 1403 1405 1407 1410 1414 1417 1420
1471 1465 1454 1451 1450 1452 1455 1457 1456 1461 1459 1456 1439 1428 1418 1408 1405 1401 1398 1396 1395 1394 1393 1392 1391 1390 1389 1388 1387 1387 1388 1388 1389 1390 1391 1392 1395 1397 1398 1400 1403 1407 1410 1414
1465 1466 1457 1452 1449 1449 1450 1453 1459 1461 1461 1455 1441 1432 1422 1412 1407 1403 1400 1397 1395 1394 1393 1391 1390 1388 1387 1385 1385 1384 1384 1384 1384 1385 1387 1388 1389 1390 1392 1394 1396 1400 1403 1407
1462 1466 1460 1455 1452 1450 1451 1452 1453 1457 1456 1454 1444 1428 1411 1409 1406 1404 1401 1398 1395 1394 1392 1390 1388 1386 1385 1383 1382 1381 1380 1380 1380 1381 1382 1383 1383 1384 1386 1388 1390 1393 1396 1399
1460 1464 1463 1456 1447 1444 1445 1447 1450 1456 1454 1451 1447 1427 1407 1406 1403 1402 1400 1397 1394 1393 1391 1389 1387 1385 1383 1381 1379 1378 1377 1376 1376 1376 1377 1378 1378 1379 1380 1382 1384 1387 1389 1392
1459 1464 1464 1456 1453 1448 1447 1445 1445 1446 1448 1445 1441 1423 1406 1404 1402 1400 1399 1396 1394 1392 1390 1387 1385 1383 1381 1378 1376 1375 1374 1373 1373 1373 1374 1374 1374 1374 1375 1376 1378 1380 1382 1385
1454 1459 1460 1455 1449 1449 1448 1443 1442 1444 1444 1439 1431 1417 1407 1404 1402 1400 1398 1395 1393 1390 1388 1386 1383 1381 1379 1377 1374 1372 1371 1370 1369 1369 1369 1369 1369 1369 1369 1370 1372 1374 1376 1378
1451 1454 1453 1448 1444 1444 1441 1437 1436 1437 1433 1431 1419 1413 1404 1401 1400 1397 1395 1392 1390 1388 1386 1384 1381 1379 1376 1375 1372 1369 1368 1367 1366 1365 1364 1364 1364 1364 1364 1365 1366 1367 1369 1371
1448 1450 1449 1445 1439 1438 1434 1427 1425 1424 1422 1419 1414 1406 1398 1398 1396 1394 1392 1390 1387 1385 1383 1381 1379 1376 1374 1372 1369 1367 1365 1363 1362 1361 1361 1360 1359 1359 1359 1360 1360 1362 1363 1365
1446 1447 1447 1442 1438 1437 1429 1415 1413 1412 1409 1409 1406 1398 1394 1394 1393 1391 1389 1387 1385 1382 1380 1378 1376 1374 1372 1370 1367 1364 1362 1361 1359 1358 1357 1356 1355 1354 1354 1354 1354 1355 1357 1358
1439 1442 1443 1441 1441 1438 1413 1405 1404 1403 1400 1398 1395 1392 1391 1390 1388 1387 1386 1384 1382 1380 1377 1376 1374 1372 1370 1367 1365 1362 1359 1357 1356 1355 1353 1352 1351 1350 1349 1349 1348 1349 1350 1352
1429 1434 1438 1439 1438 1425 1409 1401 1400 1400 1395 1390 1390 1388 1386 1386 1385 1384 1382 1381 1379 1377 1375 1373 1371 1369 1366 1364 1362 1359 1356 1354 1353 1351 1350 1349 1347 1346 1344 1343 1343 1343 1344 1345
1424 1427 1432 1433 1432 1422 1404 1395 1393 1396 1395 1386 1385 1385 1384 1384 1387 1382 1379 1378 1376 1374 1373 1370 1368 1366 1363 1361 1358 1356 1353 1351 1350 1348 1347 1345 1344 1342 1340 1338 1338 1338 1338 1339
1425 1427 1426 1425 1423 1411 1396 1392 1393 1401 1394 1384 1382 1382 1382 1382 1381 1378 1376 1374 1373 1371 1369 1367 1365 1363 1360 1358 1355 1352 1350 1348 1347 1345 1343 1341 1339 1338 1336 1334 1334 1333 1333 1333
1415 1420 1421 1419 1417 1406 1388 1390 1391 1388 1382 1381 1380 1380 1379 1377 1375 1374 1373 1371 1370 1368 1366 1364 1361 1359 1357 1354 1352 1349 1347 1345 1343 1341 1339 1337 1335 1333 1331 1330 1329 1328 1328 1327
1403 1401 1401 1401 1394 1384 1382 1382 1380 1380 1379 1378 1377 1376 1375 1373 1372 1370 1369 1367 1365 1364 1362 1360 1358 1355 1353 1351 1349 1346 1344 1342 1339 1337 1335 1333 1331 1329 1327 1325 1324 1323 1323 1322
1393 1390 1392 1391 1383 1379 1378 1377 1376 1376 1375 1374 1373 1372 1371 1369 1367 1366 1364 1362 1361 1359 1358 1356 1354 1351 1349 1347 1346 1344 1341 1339 1336 1333 1331 1329 1327 1325 1323 1322 1321 1319 1318 1317
1383 1384 1384 1381 1376 1374 1372 1372 1371 1371 1370 1369 1368 1367 1366 1365 1363 1361 1360 1358 1356 1355 1353 1352 1350 1347 1345 1343 1342 1340 1338 1335 1332 1330 1328 1325 1324 1321 1319 1318 1317 1316 1314 1314
1373 1375 1376 1371 1368 1368 1365 1365 1366 1365 1364 1363 1362 1361 1360 1359 1358 1356 1354 1353 1351 1350 1348 1346 1345 1343 1341 1339 1337 1336 1334 1331 1328 1326 1323 1321 1319 1317 1316 1313 1312 1311 1310 1309